Location: New Canada
(47.1017°N, 68.5042°W)
Time: 12:42:11
(UTC+00:00)

KKS-1 - Visible Passes

Search period start: 16 June 2025 00:00
Search period end: 26 June 2025 00:00
Orbit: 618 x 630 km, 98.1° (Epoch: 16 June)

Date Brightness Start Highest point End Pass type
(mag) Time Alt. Az. Time Alt. Az. Time Alt. Az.
16 Jun ? 03:56:24 10° NE 04:00:15 30° E 04:01:08 28° ESE visible
16 Jun ? 05:32:34 10° N 05:36:23 30° WNW 05:38:23 21° WSW visible
17 Jun ? 04:14:39 10° NNE 04:18:52 46° E 04:19:52 38° SE visible
17 Jun ? 05:51:28 10° NNW 05:54:45 21° WNW 05:57:07 14° WSW visible
18 Jun ? 04:33:03 10° NNE 04:37:25 71° ESE 04:38:36 46° S visible
18 Jun ? 06:10:37 10° NNW 06:13:03 15° WNW 06:15:29 10° W visible
19 Jun ? 03:17:29 10° ENE 03:19:14 12° E 03:20:05 12° E visible
19 Jun ? 04:51:34 10° N 04:55:56 76° WNW 04:57:20 42° SSW visible
19 Jun ? 06:30:50 10° NW 06:31:19 10° NW 06:31:48 10° WNW visible
20 Jun ? 03:34:53 10° NE 03:37:57 18° E 03:38:48 18° ESE visible
20 Jun ? 05:10:10 10° N 05:14:23 49° WNW 05:16:03 32° SW visible
21 Jun ? 03:52:51 10° NE 03:56:37 27° E 03:57:31 25° ESE visible
21 Jun ? 05:28:53 10° N 05:32:48 33° WNW 05:34:46 22° WSW visible
22 Jun ? 04:11:04 10° NNE 04:15:14 41° E 04:16:13 36° SE visible
22 Jun ? 05:47:44 10° NNW 05:51:10 23° WNW 05:53:28 15° WSW visible
23 Jun ? 04:29:26 10° NNE 04:33:47 64° ESE 04:34:56 45° SSE visible
23 Jun ? 06:06:47 10° NNW 06:09:28 16° WNW 06:12:09 10° W visible
24 Jun ? 03:14:19 10° ENE 03:15:32 11° E 03:16:23 10° E visible
24 Jun ? 04:47:54 10° NNE 04:52:17 83° WNW 04:53:38 44° SSW visible
24 Jun ? 06:26:26 10° NW 06:27:44 11° WNW 06:29:02 10° WNW visible
25 Jun ? 03:31:23 10° NE 03:34:15 17° E 03:35:05 16° ESE visible
25 Jun ? 05:06:28 10° N 05:10:45 54° WNW 05:12:20 34° SW visible
